{"data":{"norad_id":68479,"intl_designator":"2026-067BR","name":"LEMUR-2-PEGGY-2004","alt_names":[],"object_type":"PAYLOAD","status":"ACTIVE","operator":null,"country":"LUXE","launch_date":"2026-03-30","launch_site_code":"AFWTR","launch_vehicle":null,"mission":null,"orbit_class":"UNKNOWN","rcs_meters":null,"size_class":null,"mass_kg":null,"dimensions":null,"purposes":[],"wikipedia_slug":null,"has_3d_model":false,"image_url":null,"decayed_at":null,"tle_current":{"epoch":"2026-05-25T03:47:29.615424Z","epoch_age_seconds":71931,"freshness":"FRESH","line1":"1 68479U 26067BR  26145.15798166  .00005988  00000+0  58978-3 0  9995","line2":"2 68479  97.7529 103.7781 0002031  48.1614 311.9778 14.92415562  8296","mean_motion":14.92415562,"eccentricity":0.0002031,"inclination_deg":97.7529,"raan_deg":103.7781,"arg_perigee_deg":48.1614,"mean_anomaly_deg":311.9778,"bstar":0.00058978,"rev_number":829,"period_min":96.487870849473,"perigee_km":588.99086727738,"apogee_km":591.82148951645,"semimajor_km":6968.5431783969,"source":"CELESTRAK","updated_at":"2026-05-25T13:38:07.851671Z"}}}